Regional Weather Roundup
Issued by NWS

Home | Current Version | Previous Version | Graphics & Text | Print | Product List | Glossary On
Versions: 1 2 3 4 5 6 7 8 9 10 11 12 13 14 15 16 17 18 19 20 21 22 23 24 25 26 27 28 29 30 31 32 33 34 35 36 37 38 39 40 41 42 43 44 45 46 47 48 49 50
000
ASUS43 KMPX 061001
RWRMN
WEATHER ROUNDUP FOR MINNESOTA
NATIONAL WEATHER SERVICE TWIN CITIES/CHANHASSEN MN
500 AM CDT MON JUL 06 2015


NOTE: "FAIR" INDICATES FEW OR NO CLOUDS BELOW 12,000 FEET WITH NO
SIGNIFICANT WEATHER AND/OR OBSTRUCTIONS TO VISIBILITY. N/A MEANS
CURRENT SKY AND/OR WEATHER CONDITIONS ARE NOT AVAILABLE.

MNZ060>063-068>070-061100-
   Twin Cities Metro

CITY           SKY/WX    TMP DP  RH WIND       PRES   REMARKS
TWIN CITIES    TSTM      69  68  96 NE10      29.80R FOG
ST PAUL        HVY RAIN  69  67  93 NE9       29.83R FOG
CRYSTAL        RAIN      70  67  90 E13       29.78F FOG
BLAINE         HVY RAIN  70  70 100 E10       29.81F
LAKEVILLE      TSTM      70  68  94 CALM      29.83R
EDEN PRAIRIE   RAIN      71  69  93 E9        29.78F FOG
SOUTH ST PAUL  HVY RAIN  69  68  96 N5        29.84R
LAKE ELMO      RAIN      68  68 100 NE10      29.84S
$$
MNZ001>005-007-008-013>017-022>024-027-028-061100-
   Northwest Minnesota

CITY           SKY/WX    TMP DP  RH WIND       PRES   REMARKS
BEMIDJI        CLOUDY    61  60  94 NW8       29.90S FOG
HALLOCK        PTCLDY    54  50  87 N8        30.02R
ROSEAU         PTCLDY    54  48  82 NW8       29.99R
WARROAD        MOCLDY    54  48  82 NW12      29.98S
THIEF RVR FALL CLOUDY    59  54  82 N14       29.97R
CROOKSTON      CLOUDY    59  55  88 N9G16     29.97R FOG
FOSSTON        CLOUDY    57  57 100 N14       29.94R FOG
DETROIT LAKES  CLOUDY    64  61  88 N8        29.92R FOG
MOORHEAD       CLOUDY    64  61  88 N12       29.93R FOG
PARK RAPIDS    CLOUDY    66  60  81 N8        29.89R HAZE
MAHNOMEN       FAIR      62  59  91 N13       29.92R FOG
$$
MNZ006-009>011-018-025>026-061100-
   North Central Minnesota

CITY           SKY/WX    TMP DP  RH WIND       PRES   REMARKS
BAUDETTE       MOCLDY    58  51  78 NW13      29.92F
FLAG ISLAND    MOCLDY    55  48  76 NW22      29.96S
INTL FALLS     CLOUDY    58  57  97 N10       29.88S FOG
WASKISH        CLOUDY    61  57  88 N7        29.90F FOG
BIG FORK       CLOUDY    61  59  94 N5        29.89S FOG
LONGVILLE      CLOUDY    63  61  94 N7        29.86R
GRAND RAPIDS   CLOUDY    61  57  88 N6        29.86R
CRANE LAKE     CLOUDY    55  54  94 N1        29.88S VSB 1/2
COOK           CLOUDY    57  55  94 CALM      29.87R FOG
WALKER         FAIR      62  61  96 N6        29.87F FOG
$$
MNZ012-019>021-037-061100-
   Northeast Minnesota

CITY           SKY/WX    TMP DP  RH WIND       PRES   REMARKS
DULUTH         CLOUDY    67  64  90 N9        29.83R
ELY            CLOUDY    59  57  94 CALM      29.85S FOG
HIBBING        CLOUDY    61  57  87 N5        29.86R
DULUTH HARBOR  CLOUDY    66  64  94 CALM      29.82R
SILVER BAY     CLOUDY    66  63  88 CALM      29.81R
GRAND MARAIS     N/A     60  58  92 VRB5      29.77F
G MARAIS ARPRT CLOUDY    61  55  82 N6        29.84S
$$
MNZ029>031-032-039>041-046>048-054>057-064-061100-
   West Central Minnesota

CITY           SKY/WX    TMP DP  RH WIND       PRES   REMARKS
FERGUS FALLS   DRIZZLE   66  61  82 N6        29.90R
WHEATON        RAIN      64  63  94 NW8       29.93R
MORRIS         CLOUDY    68  66  94 N12       29.87R
ALEXANDRIA     CLOUDY    67  64  90 N12       29.88R
ELBOW LAKE     LGT RAIN  67  64  88 N7        29.90R
WADENA         CLOUDY    64  63  94 N8        29.87R
GLENWOOD       LGT RAIN  66  66 100 N8        29.85R
APPLETON       CLOUDY    70  66  88 NW13      29.85R
BENSON         LGT RAIN  68  64  88 N8        29.85R
ORTONVILLE     LGT RAIN  66  64  94 NW15G21   29.89R
MADISON        LGT RAIN  68  66  94 NW13      29.86R
WILLMAR        LGT RAIN  70  70 100 N6        29.82S
$$
MNZ033>034-036-042>043-049>051-058-059-061100-
   Central Minnesota

CITY           SKY/WX    TMP DP  RH WIND       PRES   REMARKS
ST CLOUD       LGT RAIN  69  68  96 E3        29.80S
SAUK CENTRE    LGT RAIN  68  66  95 N6        29.84R
PAYNESVILLE    LGT RAIN  65  65 100 NW5       29.82S
AITKIN         LGT RAIN  64  57  77 N7        29.83R
PINE RIVER     CLOUDY    64  59  82 N6        29.89S
BRAINERD       LGT RAIN  66  61  84 N9        29.85R
STAPLES        CLOUDY    64  61  88 N6        29.86S
LONG PRAIRIE   LGT RAIN  64  63  94 N8        29.85R
LITTLE FALLS   LGT RAIN  64  64 100 N5        29.79R
LITCHFIELD     TSTM      72  72 100 CALM      29.79F
BUFFALO        RAIN      69  67  93 E3        29.79F
MAPLE LAKE     RAIN      70  69  97 E3        29.79F
$$
MNZ037-044-045-052-053-061100-
   East Central Minnesota

CITY           SKY/WX    TMP DP  RH WIND       PRES   REMARKS
PRINCETON      RAIN      70  68  94 CALM      29.81S
MORA           RAIN      64  64 100 CALM      29.85R
CAMBRIDGE      RAIN      70  63  78 SE3       29.79S
RUSH CITY      LGT RAIN  68  66  96 SE7       29.81R
MOOSE LAKE     CLOUDY    64  64 100 NE3       29.82R
HINCKLEY       RAIN      68  68 100 CALM      29.82R
CLOQUET        CLOUDY    64  63  94 N5        29.83R
MCGREGOR       CLOUDY    63  63 100 N3        29.84R
$$
MNZ071>073-080-081-089-090-097-098-061100-
   Southwest Minnesota

CITY           SKY/WX    TMP DP  RH WIND       PRES   REMARKS
GRANITE FALLS  LGT RAIN  68  67  97 NW8       29.81F
CANBY          LGT RAIN  68  66  93 NW12G20   29.87R
MARSHALL       CLOUDY    70  64  83 NW9       29.82R
REDWOOD FALLS  RAIN      70  69  97 CALM      29.77F FOG
OLIVIA         RAIN      68  64  88 N5        29.77F
PIPESTONE      LGT RAIN  68  66  94 N9G17     29.84F
WINDOM         RAIN      70  68  94 CALM      29.83R
WORTHINGTON    CLOUDY    68  64  88 NE5       29.84R
JACKSON        RAIN      70  70 100 CALM      29.85R
TRACY          CLOUDY    70  68  94 NW8       29.83R
SLAYTON        HVY RAIN  68  68 100 NW9       29.84S
$$
MNZ065>067-074>077-082>085-091>093-061100-
   South Central Minnesota

CITY           SKY/WX    TMP DP  RH WIND       PRES   REMARKS
MANKATO        CLOUDY    72  68  88 W6        29.82R
NEW ULM        CLOUDY    70  70 100 SE8       29.79F
ST JAMES       RAIN      72  70  94 CALM      29.83R
FAIRMONT       CLOUDY    72  64  78 W8        29.84R
GLENCOE        TSTM      71  70  99 E5        29.78F
FARIBAULT      CLOUDY    72  70  94 SW6       29.85R
OWATONNA       TSTM      72  70  94 W6        29.84R
WASECA         CLOUDY    72  70  94 W7        29.84R
ALBERT LEA     CLOUDY    72  70  94 W10G17    29.85R
$$
MNZ078>079-086>088-094>096-061100-
   Southeast Minnesota

CITY           SKY/WX    TMP DP  RH WIND       PRES   REMARKS
ROCHESTER      CLOUDY    73  69  87 S12       29.85R
RED WING       TSTM      72  70  94 W9G20     29.84R VSB 3/4
DODGE CENTER   CLOUDY    75  70  83 W12G21    29.86R
WINONA         CLOUDY    73  68  83 CALM      29.82S
AUSTIN         CLOUDY    73  70  88 SW3       29.84R
PRESTON        CLOUDY    71  67  88 S10       29.85R
$$
ABBREVIATIONS USED IN REMARKS
   TC - TEMPERATURES IN CELSIUS
  WCI - WIND CHILL INDEX
   HX - HEAT INDEX
  VSB - VISIBILITY
$$


USA.gov is the U.S. government's official web portal to all federal, state and local government web resources and services.